Regional Weather Roundup
Issued by NWS

Home | Current Version | Previous Version | Graphics & Text | Print | Product List | Glossary On
Versions: 1 2 3 4 5 6 7 8 9 10 11 12 13 14 15 16 17 18 19 20 21 22 23 24 25 26 27 28 29 30 31 32 33 34 35 36 37 38 39 40 41 42 43 44 45 46 47 48 49 50
000
ASUS43 KIND 261009
RWRIN

WEATHER ROUNDUP FOR INDIANA
NATIONAL WEATHER SERVICE INDIANAPOLIS IN
500 AM EST WED NOV 26 2014

NOTE: "FAIR" INDICATES FEW OR NO CLOUDS BELOW 12,000 FEET WITH NO
SIGNIFICANT WEATHER AND/OR OBSTRUCTIONS TO VISIBILITY.

* - STATION DOES NOT REPORT WEATHER SUCH AS PRECIPITATION OR FOG.

+ - STATION NOT QUALITY CONTROLLED BY THE NATIONAL WEATHER SERVICE.
    USE DATA WITH CAUTION...ESPECIALLY DEWPOINT AND RELATIVE
    HUMIDITY OBSERVATIONS.

INZ001>003-010>013-019-020-261100-
NORTHWEST INDIANA

CITY           SKY/WX    TMP DP  RH WIND       PRES   REMARKS
KNOX *+        CLOUDY    24  19  83 E5        30.18S WCI  18
LA PORTE +     CLOUDY    25  21  85 CALM      30.18F
MICHIGAN CITY+ CLOUDY    25  19  80 CALM      30.19F
MONTICELLO +   CLOUDY    25  20  82 CALM      30.16F
RENSSELAER +   CLOUDY    27  23  86 CALM      30.16F
VALPARAISO     CLOUDY    23  18  81 E3        30.17F

$$

LMZ046-743>745-261100-
SOUTHERN LAKE MICHIGAN

STATION/POSITION TIME  TEMP WIND        PRES
                       AIR  DIR/SP/G
                 (UTC) (F)  (DEG/KT/KT) (MB)
MICHIGAN CITY    1000   23   80/  4/  6   N/A

$$

INZ004-005-014>016-021>024-261100-
NORTH CENTRAL INDIANA

CITY           SKY/WX    TMP DP  RH WIND       PRES   REMARKS
GOSHEN         CLOUDY    25  19  78 E5        30.17S WCI  19
LOGANSPORT +   CLOUDY    25  19  80 CALM      30.17F
PERU/GRISSOM   CLOUDY    24  23  96 N2        30.15F
ROCHESTER +    CLOUDY    27  23  86 CALM      30.17F
SOUTH BEND     CLOUDY    25  19  78 CALM      30.19S
WARSAW +       CLOUDY    25  19  80 CALM      30.17S

$$

INZ006>009-017-018-025>027-261100-
NORTHEAST INDIANA

CITY           SKY/WX    TMP DP  RH WIND       PRES   REMARKS
ANGOLA *+      CLOUDY    23  18  80 NE3       30.16S
AUBURN +       CLOUDY    27  21  80 E5        30.17S WCI  21
FORT WAYNE     CLOUDY    25  19  78 CALM      30.17F
HUNTINGTON +   CLOUDY    25  21  85 N5        30.16S WCI  19

$$

INZ028-029-035-036-043>045-051>053-261100-
WEST CENTRAL INDIANA

CITY           SKY/WX    TMP DP  RH WIND       PRES   REMARKS
GREENCASTLE +  CLOUDY    25  21  86 NE5       30.14F WCI  19
LAFAYETTE      CLOUDY    25  20  81 N5        30.16F WCI  19
TERRE HAUTE    PTCLDY    23  19  85 E5        30.16F WCI  17

$$

INZ030>032-037>040-046>048-054>057-064-065-261100-
CENTRAL INDIANA

CITY           SKY/WX    TMP DP  RH WIND       PRES   REMARKS
CP ATTERBURY + CLOUDY    30  25  80 CALM      30.15F
FRANKFORT +    CLOUDY    25  22  88 NE3       30.16F
GREENWOOD *+   CLOUDY    27  19  74 N3        30.15
INDIANAPOLIS   CLOUDY    27  21  78 E6        30.13F WCI  20
-EAGLE CREEK   CLOUDY    26  20  77 CALM      30.14F
KOKOMO *+      CLOUDY    25  19  80 E6        30.16F WCI  18
MARION +         N/A     25  20  83 N3        30.16F
MT COMFORT *+  CLOUDY    27  18  69 N3        30.14F
SHELBYVILLE    CLOUDY    29  22  75 CALM      30.14S
ZIONSVILLE +   CLOUDY    26  20  79 CALM      30.14F

$$

INZ033-034-041-042-049-050-058-059-261100-
EAST CENTRAL INDIANA

CITY           SKY/WX    TMP DP  RH WIND       PRES   REMARKS
MUNCIE         CLOUDY    27  22  81 CALM      30.14F

$$

INZ060-061-067>069-081>083-085>088-261100-
SOUTHWEST INDIANA

CITY           SKY/WX    TMP DP  RH WIND       PRES   REMARKS
EVANSVILLE     CLEAR     26  22  84 CALM      30.16F
HUNTINGBURG *+ CLEAR     23  19  86 CALM      30.15S
WASHINGTON +   CLOUDY    29  25  86 N3        30.15S

$$

INZ062-063-066-070>080-084-089>092-261100-
SOUTH CENTRAL AND SOUTHEAST INDIANA

CITY           SKY/WX    TMP DP  RH WIND       PRES   REMARKS
BLOOMINGTON    CLOUDY    27  23  85 NE3       30.13F
NORTH VERNON + CLOUDY    27  27 100 N3        30.13

$$



USA.gov is the U.S. government's official web portal to all federal, state and local government web resources and services.